FW6530 Weather Reports


Display with metric or nautical units.
time (UTC)temp
F
wind
direction
speed
MPH
gust
MPH
rain 1hr
in
rain 24hr
in
rain mn
in
humidity
%
barometer
mb
20260510051547 64 239 1.0 4.0 0.00 0.00 0.00 22 1019.9
20260510051029 64 282 1.0 6.0 0.00 0.00 0.00 22 1019.8
20260510050523 64 282 1.0 7.0 0.00 0.00 0.00 22 1019.8
20260510050036 64 285 2.0 7.0 0.00 0.00 0.00 21 1019.7
20260510045526 64 292 3.0 7.0 0.00 0.00 0.00 21 1019.7
20260510045028 64 277 1.0 6.0 0.00 0.00 0.00 21 1019.6
20260510044540 64 269 2.0 7.0 0.00 0.00 0.00 21 1019.7
20260510044024 64 282 2.0 7.0 0.00 0.00 0.00 21 1019.8
20260510043523 63 283 3.0 7.0 0.00 0.00 0.00 21 1019.8
20260510043041 63 291 1.0 3.0 0.00 0.00 0.00 22 1019.7
20260510042527 63 292 1.0 3.0 0.00 0.00 0.00 21 1019.7
20260510042026 63 292 1.0 3.0 0.00 0.00 0.00 20 1019.7
20260510041541 64 0 0.0 4.0 0.00 0.00 0.00 19 1019.6
20260510041025 64 0 0.0 4.0 0.00 0.00 0.00 19 1019.6
20260510040524 64 292 1.0 4.0 0.00 0.00 0.00 18 1019.5
20260510040045 65 0 1.0 4.0 0.00 0.00 0.00 18 1019.5
20260510035525 65 288 0.0 4.0 0.00 0.00 0.00 18 1019.4
20260510035025 66 290 2.0 7.0 0.00 0.00 0.00 17 1019.3
20260510034544 66 285 2.0 7.0 0.00 0.00 0.00 17 1019.4
20260510034023 66 229 2.0 7.0 0.00 0.00 0.00 16 1019.4
20260510033527 67 237 2.0 7.0 0.00 0.00 0.00 16 1019.3
20260510033035 67 243 3.0 7.0 0.00 0.00 0.00 16 1019.2
20260510032522 67 248 1.0 5.0 0.00 0.00 0.00 16 1019.0
20260510032024 67 242 2.0 5.0 0.00 0.00 0.00 16 1018.9
20260510031539 68 219 1.0 5.0 0.00 0.00 0.00 16 1018.9
20260510031025 68 0 0.0 2.0 0.00 0.00 0.00 16 1018.8
20260510030522 69 0 0.0 2.0 0.00 0.00 0.00 16 1018.7
20260510030038 69 0 0.0 6.0 0.00 0.00 0.00 15 1018.6
20260510025524 70 0 0.0 6.0 0.00 0.00 0.00 15 1018.5
20260510025025 70 206 2.0 8.0 0.00 0.00 0.00 15 1018.4
20260510024539 70 200 2.0 9.0 0.00 0.00 0.00 15 1018.4
20260510024024 70 198 3.0 10.0 0.00 0.00 0.00 14 1018.3
20260510023524 71 190 4.0 10.0 0.00 0.00 0.00 14 1018.2
20260510023037 71 193 5.0 11.0 0.00 0.00 0.00 14 1018.2
20260510022523 71 196 5.0 11.0 0.00 0.00 0.00 14 1018.2
20260510022024 71 191 4.0 10.0 0.00 0.00 0.00 14 1018.1
20260510021536 71 167 4.0 10.0 0.00 0.00 0.00 13 1018.1
20260510021023 72 159 4.0 12.0 0.00 0.00 0.00 13 1018.1
20260510020525 72 197 5.0 14.0 0.00 0.00 0.00 13 1018.0
20260510020035 72 186 7.0 14.0 0.00 0.00 0.00 13 1017.9
20260510015527 73 202 4.0 19.0 0.00 0.00 0.00 13 1017.9
20260510015025 73 108 8.0 19.0 0.00 0.00 0.00 13 1017.9
20260510014543 73 152 10.0 25.0 0.00 0.00 0.00 12 1017.8
20260510014024 74 144 11.0 25.0 0.00 0.00 0.00 12 1017.7
20260510013528 75 165 6.0 18.0 0.00 0.00 0.00 12 1017.7
20260510013039 75 138 6.0 25.0 0.00 0.00 0.00 12 1017.7
20260510012524 75 165 10.0 25.0 0.00 0.00 0.00 12 1017.6
20260510012028 75 164 8.0 18.0 0.00 0.00 0.00 12 1017.5
20260510011539 75 155 7.0 18.0 0.00 0.00 0.00 12 1017.5
20260510011022 75 177 8.0 16.0 0.00 0.00 0.00 11 1017.4
20260510010524 75 171 4.0 18.0 0.00 0.00 0.00 12 1017.4
20260510010044 75 149 6.0 20.0 0.00 0.00 0.00 11 1017.4
20260510005524 75 167 8.0 20.0 0.00 0.00 0.00 11 1017.4
20260510005024 75 192 8.0 20.0 0.00 0.00 0.00 12 1017.4
20260510004536 75 184 9.0 20.0 0.00 0.00 0.00 11 1017.3
20260510004025 76 184 10.0 21.0 0.00 0.00 0.00 11 1017.4
20260510003524 76 157 9.0 21.0 0.00 0.00 0.00 11 1017.3
20260510003055 76 128 8.0 17.0 0.00 0.00 0.00 11 1017.2
20260510002524 76 169 8.0 18.0 0.00 0.00 0.00 11 1017.3
20260510002022 76 169 8.0 18.0 0.00 0.00 0.00 12 1017.2
20260510001542 76 172 7.0 16.0 0.00 0.00 0.00 12 1017.3
20260510001025 76 173 8.0 16.0 0.00 0.00 0.00 11 1017.2
20260510000525 76 165 9.0 18.0 0.00 0.00 0.00 11 1017.2
20260510000046 76 159 8.0 20.0 0.00 0.00 0.00 11 1017.1
20260509235524 76 170 11.0 20.0 0.00 0.00 0.00 11 1017.2
20260509235024 77 188 9.0 27.0 0.00 0.00 0.00 11 1017.2
20260509234539 77 180 12.0 27.0 0.00 0.00 0.00 10 1017.2
20260509234025 78 180 8.0 21.0 0.00 0.00 0.00 11 1017.1
20260509233523 77 181 9.0 21.0 0.00 0.00 0.00 11 1017.1
20260509233035 77 131 8.0 17.0 0.00 0.00 0.00 12 1017.0
20260509232522 77 187 7.0 21.0 0.00 0.00 0.00 11 1017.2
20260509232024 77 172 7.0 21.0 0.00 0.00 0.00 11 1017.2
20260509231536 78 190 5.0 15.0 0.00 0.00 0.00 11 1017.1
20260509231023 77 187 3.0 19.0 0.00 0.00 0.00 11 1017.1
20260509230524 77 180 9.0 26.0 0.00 0.00 0.00 11 1017.2
20260509230035 77 136 12.0 26.0 0.00 0.00 0.00 11 1017.2
20260509225524 79 144 14.0 24.0 0.00 0.00 0.00 11 1017.1
20260509225023 80 129 9.0 20.0 0.00 0.00 0.00 10 1017.1
20260509224535 80 131 11.0 20.0 0.00 0.00 0.00 10 1017.0
20260509224024 79 115 8.0 22.0 0.00 0.00 0.00 11 1017.0
20260509223524 79 176 11.0 22.0 0.00 0.00 0.00 10 1017.1
20260509223034 78 119 6.0 20.0 0.00 0.00 0.00 11 1017.1
20260509222524 77 159 7.0 20.0 0.00 0.00 0.00 12 1017.2
20260509222023 76 184 5.0 19.0 0.00 0.00 0.00 12 1017.1
20260509221538 77 165 8.0 19.0 0.00 0.00 0.00 11 1017.3
20260509221025 77 173 9.0 19.0 0.00 0.00 0.00 12 1017.3
20260509220522 78 173 5.0 19.0 0.00 0.00 0.00 12 1017.3
20260509220045 77 141 8.0 19.0 0.00 0.00 0.00 12 1017.4
20260509215523 76 173 6.0 15.0 0.00 0.00 0.00 13 1017.5
20260509215024 76 183 5.0 14.0 0.00 0.00 0.00 13 1017.5
20260509214543 77 198 6.0 15.0 0.00 0.00 0.00 12 1017.5
20260509214025 77 186 4.0 15.0 0.00 0.00 0.00 12 1017.6
20260509213523 78 178 8.0 19.0 0.00 0.00 0.00 12 1017.6
20260509213035 78 181 6.0 19.0 0.00 0.00 0.00 12 1017.6
20260509212522 78 198 8.0 19.0 0.00 0.00 0.00 12 1017.7
20260509212022 77 247 10.0 19.0 0.00 0.00 0.00 12 1017.8
20260509211535 77 167 7.0 16.0 0.00 0.00 0.00 12 1017.8
20260509211026 77 167 5.0 16.0 0.00 0.00 0.00 12 1017.9
20260509210526 77 171 7.0 21.0 0.00 0.00 0.00 13 1018.1
20260509210045 77 187 9.0 21.0 0.00 0.00 0.00 13 1018.2
20260509205528 77 185 7.0 21.0 0.00 0.00 0.00 12 1018.2
20260509205027 77 192 9.0 21.0 0.00 0.00 0.00 12 1018.5
20260509204539 78 160 11.0 20.0 0.00 0.00 0.00 12 1018.4
20260509204025 78 196 8.0 20.0 0.00 0.00 0.00 11 1018.4
20260509203528 79 160 5.0 16.0 0.00 0.00 0.00 11 1018.3
20260509203039 78 182 6.0 20.0 0.00 0.00 0.00 12 1018.5
20260509202525 77 171 8.0 21.0 0.00 0.00 0.00 12 1018.6
20260509202025 78 175 10.0 21.0 0.00 0.00 0.00 12 1018.6
20260509201534 79 147 7.0 16.0 0.00 0.00 0.00 12 1018.7
20260509201024 78 73 7.0 13.0 0.00 0.00 0.00 13 1018.7
20260509200525 77 117 5.0 16.0 0.00 0.00 0.00 13 1018.9
20260509200046 77 115 8.0 18.0 0.00 0.00 0.00 13 1019.0
20260509195526 77 175 7.0 20.0 0.00 0.00 0.00 13 1019.1
20260509195026 78 187 8.0 20.0 0.00 0.00 0.00 13 1019.2
20260509194548 78 234 2.0 10.0 0.00 0.00 0.00 13 1019.2
20260509194026 78 231 4.0 10.0 0.00 0.00 0.00 13 1019.4
20260509193527 79 223 3.0 8.0 0.00 0.00 0.00 14 1019.3
20260509193041 79 274 2.0 9.0 0.00 0.00 0.00 13 1019.3
20260509192525 80 232 1.0 9.0 0.00 0.00 0.00 13 1019.3
20260509192025 80 269 3.0 14.0 0.00 0.00 0.00 13 1019.3
20260509191540 80 127 6.0 14.0 0.00 0.00 0.00 13 1019.4
20260509191029 79 92 4.0 10.0 0.00 0.00 0.00 14 1019.4
20260509190523 79 195 4.0 12.0 0.00 0.00 0.00 14 1019.6
20260509190042 78 219 5.0 12.0 0.00 0.00 0.00 14 1019.6
20260509185526 78 159 3.0 12.0 0.00 0.00 0.00 15 1019.7
20260509185025 77 180 2.0 16.0 0.00 0.00 0.00 15 1019.8
20260509184538 76 77 6.0 16.0 0.00 0.00 0.00 15 1019.9
20260509184026 77 157 6.0 15.0 0.00 0.00 0.00 15 1019.9
20260509183524 78 244 4.0 15.0 0.00 0.00 0.00 15 1020.0
20260509183057 77 127 5.0 10.0 0.00 0.00 0.00 15 1020.0
20260509182526 76 136 4.0 12.0 0.00 0.00 0.00 15 1020.1
20260509182027 76 148 6.0 15.0 0.00 0.00 0.00 16 1020.2
20260509181540 76 101 8.0 15.0 0.00 0.00 0.00 16 1020.3
20260509181023 76 127 4.0 10.0 0.00 0.00 0.00 16 1020.3
20260509180539 75 169 2.0 10.0 0.00 0.00 0.00 16 1020.4
20260509180035 75 180 2.0 12.0 0.00 0.00 0.00 16 1020.6
20260509175524 76 184 6.0 14.0 0.00 0.00 0.00 15 1020.6
20260509175024 76 157 5.0 14.0 0.00 0.00 0.00 16 1020.7
20260509174546 75 199 3.0 11.0 0.00 0.00 0.00 16 1020.7
20260509174026 75 150 7.0 16.0 0.00 0.00 0.00 17 1020.6
20260509173523 75 117 2.0 16.0 0.00 0.00 0.00 18 1020.7
20260509173044 75 136 4.0 12.0 0.00 0.00 0.00 17 1020.7
20260509172524 75 119 4.0 14.0 0.00 0.00 0.00 17 1020.7
20260509172025 75 155 6.0 16.0 0.00 0.00 0.00 17 1020.7
20260509171541 75 110 6.0 16.0 0.00 0.00 0.00 17 1020.7
20260509171023 74 195 6.0 17.0 0.00 0.00 0.00 17 1020.6
20260509170523 73 153 2.0 17.0 0.00 0.00 0.00 19 1020.7
20260509170039 73 163 10.0 17.0 0.00 0.00 0.00 18 1020.7
20260509165524 73 171 7.0 15.0 0.00 0.00 0.00 19 1020.6
20260509165022 73 128 8.0 15.0 0.00 0.00 0.00 18 1020.7
20260509164540 72 82 7.0 15.0 0.00 0.00 0.00 18 1020.7
20260509164022 72 166 4.0 11.0 0.00 0.00 0.00 19 1020.7
20260509163528 72 147 2.0 10.0 0.00 0.00 0.00 19 1020.8
20260509163044 72 182 4.0 10.0 0.00 0.00 0.00 19 1020.7
20260509162527 72 161 5.0 10.0 0.00 0.00 0.00 19 1020.7
20260509162024 71 206 3.0 10.0 0.00 0.00 0.00 20 1020.7
20260509161544 72 180 4.0 11.0 0.00 0.00 0.00 20 1020.7
20260509161023 71 190 3.0 11.0 0.00 0.00 0.00 20 1020.7
20260509160522 71 173 5.0 9.0 0.00 0.00 0.00 21 1020.7
20260509160043 71 208 2.0 9.0 0.00 0.00 0.00 21 1020.9
20260509155523 70 216 2.0 10.0 0.00 0.00 0.00 21 1020.9
20260509155023 70 160 3.0 10.0 0.00 0.00 0.00 22 1020.8
20260509154541 69 182 4.0 8.0 0.00 0.00 0.00 22 1020.9
20260509154023 69 193 3.0 9.0 0.00 0.00 0.00 22 1020.9
20260509153524 69 184 4.0 9.0 0.00 0.00 0.00 22 1020.9
20260509153047 69 194 3.0 7.0 0.00 0.00 0.00 22 1020.9
20260509152520 69 150 3.0 7.0 0.00 0.00 0.00 23 1020.9
20260509152024 69 139 2.0 5.0 0.00 0.00 0.00 22 1021.0
20260509151540 69 224 1.0 4.0 0.00 0.00 0.00 22 1020.9
20260509151022 69 226 1.0 4.0 0.00 0.00 0.00 22 1020.7
20260509150527 68 0 0.0 5.0 0.00 0.00 0.00 22 1020.8
20260509150044 68 0 0.0 6.0 0.00 0.00 0.00 22 1020.7
20260509145525 68 166 1.0 6.0 0.00 0.00 0.00 23 1020.8
20260509145025 68 0 2.0 6.0 0.00 0.00 0.00 24 1020.9
20260509144540 67 146 0.0 4.0 0.00 0.00 0.00 24 1020.7
20260509144023 66 145 0.0 5.0 0.00 0.00 0.00 24 1020.8
20260509143525 66 142 2.0 5.0 0.00 0.00 0.00 24 1020.8
20260509143041 66 140 1.0 5.0 0.00 0.00 0.00 24 1020.9
20260509142524 66 148 1.0 6.0 0.00 0.00 0.00 24 1021.0
20260509142027 66 145 2.0 6.0 0.00 0.00 0.00 24 1020.9
20260509141540 67 65 1.0 5.0 0.00 0.00 0.00 24 1020.8
20260509141024 66 284 1.0 3.0 0.00 0.00 0.00 25 1020.7
20260509140524 65 0 0.0 1.0 0.00 0.00 0.00 26 1020.7
20260509140045 64 0 0.0 1.0 0.00 0.00 0.00 27 1020.7
20260509135527 62 0 0.0 1.0 0.00 0.00 0.00 28 1020.7
20260509135025 61 0 0.0 2.0 0.00 0.00 0.00 32 1020.7
20260509134539 59 287 0.0 3.0 0.00 0.00 0.00 36 1020.7
20260509134023 58 287 1.0 3.0 0.00 0.00 0.00 38 1020.7
20260509133524 56 287 1.0 3.0 0.00 0.00 0.00 40 1020.7
20260509133039 54 288 1.0 4.0 0.00 0.00 0.00 42 1020.7
20260509132526 53 281 1.0 4.0 0.00 0.00 0.00 43 1020.6
20260509132025 51 248 2.0 4.0 0.00 0.00 0.00 43 1020.6
20260509131539 50 280 2.0 6.0 0.00 0.00 0.00 44 1020.5
20260509131024 49 279 3.0 6.0 0.00 0.00 0.00 45 1020.6
20260509130524 48 274 3.0 6.0 0.00 0.00 0.00 47 1020.6
20260509130038 46 273 3.0 6.0 0.00 0.00 0.00 48 1020.5
20260509125530 45 274 3.0 6.0 0.00 0.00 0.00 50 1020.5
20260509125024 44 275 3.0 5.0 0.00 0.00 0.00 51 1020.5
20260509124536 43 306 2.0 5.0 0.00 0.00 0.00 52 1020.4
20260509124024 43 306 2.0 5.0 0.00 0.00 0.00 53 1020.4
20260509123525 43 306 3.0 5.0 0.00 0.00 0.00 53 1020.2
20260509123042 43 304 3.0 5.0 0.00 0.00 0.00 53 1020.2
20260509122524 42 304 2.0 5.0 0.00 0.00 0.00 52 1020.2
20260509122025 42 304 3.0 7.0 0.00 0.00 0.00 53 1020.0
20260509121540 42 304 4.0 7.0 0.00 0.00 0.00 53 1019.9
20260509121024 42 302 3.0 5.0 0.00 0.00 0.00 53 1020.0
20260509120526 42 301 3.0 4.0 0.00 0.00 0.00 53 1019.9
20260509120041 42 301 2.0 5.0 0.00 0.00 0.00 53 1019.9
20260509115523 42 301 2.0 5.0 0.00 0.00 0.00 53 1019.8
20260509115024 42 300 3.0 4.0 0.00 0.00 0.00 53 1019.7
20260509114538 42 300 1.0 4.0 0.00 0.00 0.00 53 1019.7
20260509114025 42 300 2.0 4.0 0.00 0.00 0.00 52 1019.7
20260509113525 43 300 3.0 4.0 0.00 0.00 0.00 52 1019.7
20260509113037 43 300 1.0 4.0 0.00 0.00 0.00 51 1019.7
20260509112524 43 300 2.0 4.0 0.00 0.00 0.00 51 1019.6
20260509112025 43 0 0.0 4.0 0.00 0.00 0.00 50 1019.5
20260509111535 44 300 1.0 5.0 0.00 0.00 0.00 50 1019.6
20260509111025 44 300 3.0 5.0 0.00 0.00 0.00 50 1019.5
20260509110524 43 300 2.0 4.0 0.00 0.00 0.00 50 1019.5
20260509110035 44 300 2.0 4.0 0.00 0.00 0.00 50 1019.6
20260509105523 44 300 2.0 4.0 0.00 0.00 0.00 50 1019.5
20260509105025 43 300 3.0 4.0 0.00 0.00 0.00 50 1019.5
20260509104540 43 300 2.0 5.0 0.00 0.00 0.00 50 1019.5
20260509104023 44 300 3.0 5.0 0.00 0.00 0.00 50 1019.4
20260509103523 44 300 2.0 5.0 0.00 0.00 0.00 50 1019.5
20260509103047 44 300 3.0 4.0 0.00 0.00 0.00 51 1019.5
20260509102524 44 300 2.0 4.0 0.00 0.00 0.00 50 1019.5
20260509102025 44 300 3.0 5.0 0.00 0.00 0.00 50 1019.5
20260509101541 44 300 3.0 5.0 0.00 0.00 0.00 50 1019.5
20260509101026 44 298 3.0 5.0 0.00 0.00 0.00 50 1019.5
20260509100524 44 298 2.0 4.0 0.00 0.00 0.00 50 1019.5
20260509100045 44 298 3.0 4.0 0.00 0.00 0.00 50 1019.6
20260509095526 44 298 2.0 4.0 0.00 0.00 0.00 50 1019.5
20260509095022 44 298 2.0 4.0 0.00 0.00 0.00 50 1019.5
20260509094537 44 298 2.0 4.0 0.00 0.00 0.00 50 1019.6
20260509094024 44 298 3.0 5.0 0.00 0.00 0.00 50 1019.6
20260509093525 44 298 3.0 5.0 0.00 0.00 0.00 50 1019.5
20260509093041 44 298 3.0 5.0 0.00 0.00 0.00 51 1019.5
20260509092524 44 298 3.0 5.0 0.00 0.00 0.00 50 1019.5
20260509092028 44 298 2.0 4.0 0.00 0.00 0.00 50 1019.5
20260509091538 44 298 2.0 4.0 0.00 0.00 0.00 50 1019.5
20260509091025 45 298 2.0 4.0 0.00 0.00 0.00 49 1019.5
20260509090526 45 298 2.0 3.0 0.00 0.00 0.00 49 1019.4
20260509090047 45 298 1.0 3.0 0.00 0.00 0.00 48 1019.3
20260509085524 45 298 1.0 4.0 0.00 0.00 0.00 47 1019.3
20260509085025 45 298 2.0 4.0 0.00 0.00 0.00 48 1019.2
20260509084536 46 298 2.0 3.0 0.00 0.00 0.00 47 1019.2
20260509084028 46 298 2.0 3.0 0.00 0.00 0.00 47 1019.2
20260509083524 46 0 1.0 3.0 0.00 0.00 0.00 47 1019.3
20260509083043 46 298 1.0 3.0 0.00 0.00 0.00 46 1019.2
20260509082524 46 298 1.0 3.0 0.00 0.00 0.00 46 1019.2
20260509082024 46 298 2.0 3.0 0.00 0.00 0.00 46 1019.1
20260509081541 46 0 0.0 2.0 0.00 0.00 0.00 47 1019.1
20260509081024 47 0 0.0 2.0 0.00 0.00 0.00 45 1019.3
20260509080524 47 298 1.0 3.0 0.00 0.00 0.00 44 1019.2
20260509080041 48 298 1.0 3.0 0.00 0.00 0.00 44 1019.1
20260509075522 48 298 1.0 3.0 0.00 0.00 0.00 43 1019.2
20260509075025 49 298 1.0 4.0 0.00 0.00 0.00 42 1019.2
20260509074536 49 298 2.0 5.0 0.00 0.00 0.00 41 1019.1
20260509074029 49 298 3.0 5.0 0.00 0.00 0.00 41 1019.2
20260509073526 49 298 3.0 5.0 0.00 0.00 0.00 40 1019.2
20260509073037 49 300 3.0 7.0 0.00 0.00 0.00 40 1019.2
20260509072526 50 299 3.0 7.0 0.00 0.00 0.00 40 1019.1
20260509072024 50 300 4.0 7.0 0.00 0.00 0.00 40 1019.2
20260509071535 50 300 2.0 5.0 0.00 0.00 0.00 40 1019.2
20260509071025 50 295 3.0 5.0 0.00 0.00 0.00 40 1019.2
20260509070524 49 299 3.0 5.0 0.00 0.00 0.00 40 1019.2
20260509070043 49 300 3.0 5.0 0.00 0.00 0.00 40 1019.3
20260509065525 49 298 2.0 4.0 0.00 0.00 0.00 40 1019.3
20260509065024 50 298 2.0 5.0 0.00 0.00 0.00 40 1019.4
20260509064543 49 298 3.0 7.0 0.00 0.00 0.00 40 1019.4
20260509064023 49 300 4.0 7.0 0.00 0.00 0.00 40 1019.4
20260509063527 49 298 2.0 4.0 0.00 0.00 0.00 40 1019.4
20260509063038 49 297 2.0 4.0 0.00 0.00 0.00 40 1019.5
20260509062524 49 297 1.0 4.0 0.00 0.00 0.00 40 1019.4
20260509062024 50 0 0.0 2.0 0.00 0.00 0.00 39 1019.5
20260509061537 51 0 0.0 4.0 0.00 0.00 0.00 38 1019.6
20260509061029 51 297 1.0 4.0 0.00 0.00 0.00 37 1019.5
20260509060525 51 297 2.0 5.0 0.00 0.00 0.00 36 1019.5
20260509060039 52 298 2.0 5.0 0.00 0.00 0.00 36 1019.5
20260509055529 52 298 2.0 4.0 0.00 0.00 0.00 36 1019.5
20260509055027 52 298 2.0 4.0 0.00 0.00 0.00 35 1019.5
20260509054535 52 298 1.0 5.0 0.00 0.00 0.00 35 1019.5
20260509054025 53 298 3.0 7.0 0.00 0.00 0.00 35 1019.5
20260509053525 53 302 2.0 7.0 0.00 0.00 0.00 34 1019.5
20260509053041 53 298 2.0 5.0 0.00 0.00 0.00 34 1019.5
20260509052524 53 299 2.0 4.0 0.00 0.00 0.00 34 1019.5
20260509052024 54 0 1.0 3.0 0.00 0.00 0.00 33 1019.6